When you browse on this site, cookies collect data to enhance your experience and personalize the content and advertising you see.
Visit our Privacy Policy to learn more. By continuing to use the site, you agree to this use of cookies and data.
  • In Switzerland
  • List of Countries
  • For 7 days
  • Water Temperature
  • Weather Map
  • Weather Widgets
  • user-avatar
    Login

    Hourly Weather Annaba

    Today, 3 June, Wednesday

    Time Temperature Precipitation Wind Pressure Humidity
    00:00 +21°C° 0 mm 1 mps 758 mmHg 70%
    01:00 +20°C° 0 mm 1 mps 758 mmHg 69%
    02:00 +20°C° 0 mm 1 mps 758 mmHg 70%
    03:00 +20°C° 0 mm 1 mps 757 mmHg 70%
    04:00 +19°C° 0 mm 1 mps 757 mmHg 70%
    05:00 +20°C° 0 mm 1 mps 757 mmHg 66%
    06:00 +21°C° 0 mm 1 mps 757 mmHg 62%
    07:00 +22°C° 0 mm 1 mps 757 mmHg 58%
    08:00 +24°C° 0 mm 2 mps 757 mmHg 52%
    09:00 +26°C° 0 mm 2 mps 757 mmHg 47%
    10:00 +28°C° 0 mm 2 mps 757 mmHg 41%
    11:00 +28°C° 0 mm 3 mps 757 mmHg 40%
    12:00 +29°C° 0 mm 3 mps 756 mmHg 39%
    13:00 +30°C° 0 mm 4 mps 756 mmHg 38%
    14:00 +30°C° 0 mm 4 mps 756 mmHg 38%
    15:00 +30°C° 0 mm 4 mps 755 mmHg 39%
    16:00 +29°C° 0 mm 5 mps 755 mmHg 39%
    17:00 +28°C° 0 mm 4 mps 755 mmHg 44%
    18:00 +27°C° 0 mm 4 mps 754 mmHg 49%
    19:00 +25°C° 0 mm 4 mps 754 mmHg 53%
    20:00 +24°C° 0 mm 3 mps 754 mmHg 55%
    21:00 +22°C° 0 mm 3 mps 755 mmHg 57%
    22:00 +23°C° 0 mm 2 mps 755 mmHg 59%
    23:00 +23°C° 0 mm 2 mps 754 mmHg 58%

    Tomorrow, 4 June, Thursday

    Time Temperature Precipitation Wind Pressure Humidity
    00:00 +23°C° 0 mm 2 mps 754 mmHg 57%
    01:00 +23°C° 0 mm 1 mps 754 mmHg 57%
    02:00 +22°C° 0 mm 1 mps 753 mmHg 58%
    03:00 +21°C° 0 mm 2 mps 753 mmHg 59%
    04:00 +21°C° 0 mm 2 mps 753 mmHg 60%
    05:00 +23°C° 0 mm 2 mps 753 mmHg 58%
    06:00 +24°C° 0 mm 1 mps 752 mmHg 56%
    07:00 +25°C° 0 mm 1 mps 752 mmHg 54%
    08:00 +28°C° 0 mm 1 mps 752 mmHg 48%
    09:00 +30°C° 0 mm 1 mps 753 mmHg 43%
    10:00 +32°C° 0 mm 1 mps 753 mmHg 37%
    11:00 +34°C° 0 mm 2 mps 752 mmHg 34%
    12:00 +35°C° 0 mm 3 mps 752 mmHg 32%
    13:00 +36°C° 0 mm 4 mps 752 mmHg 29%
    14:00 +35°C° 0 mm 4 mps 752 mmHg 31%
    15:00 +33°C° 0 mm 4 mps 752 mmHg 34%
    16:00 +32°C° 0 mm 5 mps 752 mmHg 36%
    17:00 +29°C° 0.2 mm 5 mps 752 mmHg 42%
    18:00 +27°C° 0.2 mm 4 mps 752 mmHg 48%
    19:00 +26°C° 0.2 mm 4 mps 753 mmHg 54%
    20:00 +23°C° 0.8 mm 4 mps 753 mmHg 62%
    21:00 +22°C° 0.8 mm 4 mps 754 mmHg 71%
    22:00 +20°C° 0.8 mm 4 mps 755 mmHg 79%
    23:00 +20°C° 0.3 mm 4 mps 755 mmHg 81%

    Day after tomorrow, 5 June, Friday

    Time Temperature Precipitation Wind Pressure Humidity
    00:00 +20°C° 0.3 mm 4 mps 755 mmHg 82%
    01:00 +20°C° 0.3 mm 4 mps 754 mmHg 84%
    02:00 +20°C° 0.2 mm 4 mps 754 mmHg 84%
    03:00 +20°C° 0.2 mm 4 mps 754 mmHg 85%
    04:00 +20°C° 0.2 mm 4 mps 754 mmHg 85%
    05:00 +21°C° 0.1 mm 4 mps 754 mmHg 82%
    06:00 +21°C° 0.1 mm 5 mps 754 mmHg 79%
    07:00 +22°C° 0.1 mm 6 mps 754 mmHg 76%
    08:00 +23°C° 0 mm 7 mps 754 mmHg 67%
    09:00 +24°C° 0 mm 7 mps 754 mmHg 58%
    10:00 +27°C° 0 mm 8 mps 754 mmHg 49%
    11:00 +27°C° 0 mm 8 mps 755 mmHg 47%
    12:00 +28°C° 0 mm 9 mps 755 mmHg 46%
    13:00 +28°C° 0 mm 9 mps 755 mmHg 44%
    14:00 +27°C° 0 mm 9 mps 756 mmHg 45%
    15:00 +27°C° 0 mm 9 mps 756 mmHg 46%
    16:00 +26°C° 0 mm 8 mps 756 mmHg 47%
    17:00 +24°C° 0 mm 8 mps 757 mmHg 51%
    18:00 +23°C° 0 mm 7 mps 757 mmHg 54%
    19:00 +22°C° 0 mm 6 mps 758 mmHg 57%
    20:00 +21°C° 0 mm 5 mps 758 mmHg 62%
    21:00 +20°C° 0 mm 4 mps 758 mmHg 67%
    22:00 +19°C° 0 mm 4 mps 759 mmHg 72%
    23:00 +19°C° 0 mm 3 mps 759 mmHg 70%

    6 June, Saturday

    Time Temperature Precipitation Wind Pressure Humidity
    00:00 +18°C° 0 mm 3 mps 758 mmHg 68%
    01:00 +18°C° 0 mm 3 mps 758 mmHg 67%
    02:00 +18°C° 0 mm 3 mps 758 mmHg 65%
    03:00 +18°C° 0 mm 2 mps 758 mmHg 63%
    04:00 +18°C° 0 mm 2 mps 758 mmHg 60%
    05:00 +19°C° 0 mm 2 mps 758 mmHg 57%
    06:00 +20°C° 0 mm 2 mps 758 mmHg 54%
    07:00 +21°C° 0 mm 2 mps 758 mmHg 51%
    08:00 +24°C° 0 mm 2 mps 759 mmHg 45%
    09:00 +27°C° 0 mm 1 mps 759 mmHg 40%
    10:00 +29°C° 0 mm 1 mps 759 mmHg 34%
    11:00 +30°C° 0 mm 1 mps 759 mmHg 33%
    12:00 +31°C° 0 mm 2 mps 759 mmHg 31%
    13:00 +32°C° 0 mm 2 mps 758 mmHg 30%
    14:00 +33°C° 0 mm 3 mps 758 mmHg 30%
    15:00 +33°C° 0 mm 3 mps 757 mmHg 31%
    16:00 +33°C° 0 mm 3 mps 757 mmHg 31%
    17:00 +30°C° 0 mm 3 mps 757 mmHg 36%
    18:00 +28°C° 0 mm 3 mps 757 mmHg 41%
    19:00 +27°C° 0 mm 3 mps 757 mmHg 46%
    20:00 +26°C° 0 mm 3 mps 757 mmHg 48%
    21:00 +25°C° 0 mm 2 mps 757 mmHg 49%
    22:00 +24°C° 0 mm 1 mps 758 mmHg 51%
    23:00 +24°C° 0 mm 1 mps 757 mmHg 51%

    7 June, Sunday

    Time Temperature Precipitation Wind Pressure Humidity
    00:00 +24°C° 0 mm 1 mps 757 mmHg 50%
    01:00 +24°C° 0 mm 1 mps 757 mmHg 50%
    02:00 +24°C° 0 mm 1 mps 756 mmHg 51%
    03:00 +24°C° 0 mm 1 mps 756 mmHg 51%
    04:00 +24°C° 0 mm 1 mps 756 mmHg 52%
    05:00 +24°C° 0.1 mm 1 mps 756 mmHg 51%
    06:00 +25°C° 0.1 mm 2 mps 756 mmHg 50%
    07:00 +25°C° 0.1 mm 3 mps 757 mmHg 49%
    08:00 +26°C° 0 mm 3 mps 757 mmHg 48%
    09:00 +27°C° 0 mm 3 mps 757 mmHg 47%
    10:00 +28°C° 0 mm 3 mps 758 mmHg 46%
    11:00 +29°C° 0 mm 4 mps 758 mmHg 44%
    12:00 +30°C° 0 mm 4 mps 758 mmHg 42%
    13:00 +32°C° 0 mm 4 mps 758 mmHg 40%
    14:00 +32°C° 0 mm 4 mps 757 mmHg 40%
    15:00 +31°C° 0 mm 3 mps 757 mmHg 39%
    16:00 +30°C° 0 mm 3 mps 757 mmHg 39%
    17:00 +29°C° 0.1 mm 2 mps 757 mmHg 43%
    18:00 +28°C° 0.1 mm 2 mps 757 mmHg 48%
    19:00 +27°C° 0.1 mm 2 mps 758 mmHg 52%
    20:00 +25°C° 0 mm 1 mps 758 mmHg 59%
    21:00 +24°C° 0 mm 1 mps 759 mmHg 65%
    22:00 +22°C° 0 mm 1 mps 759 mmHg 72%
    23:00 +22°C° 0 mm 1 mps 759 mmHg 71%

    8 June, Monday

    Time Temperature Precipitation Wind Pressure Humidity
    00:00 +22°C° 0 mm 1 mps 759 mmHg 70%
    01:00 +21°C° 0 mm 2 mps 759 mmHg 69%
    02:00 +21°C° 0 mm 2 mps 758 mmHg 68%
    03:00 +21°C° 0 mm 2 mps 758 mmHg 67%
    04:00 +21°C° 0 mm 2 mps 758 mmHg 66%
    05:00 +23°C° 0 mm 2 mps 758 mmHg 63%
    06:00 +24°C° 0 mm 1 mps 758 mmHg 60%
    07:00 +25°C° 0 mm 1 mps 758 mmHg 57%
    08:00 +26°C° 0 mm 2 mps 758 mmHg 53%
    09:00 +27°C° 0 mm 2 mps 758 mmHg 50%
    10:00 +29°C° 0 mm 3 mps 758 mmHg 47%
    11:00 +29°C° 0 mm 3 mps 758 mmHg 47%
    12:00 +29°C° 0 mm 3 mps 758 mmHg 48%
    13:00 +29°C° 0 mm 4 mps 758 mmHg 48%
    14:00 +29°C° 0 mm 4 mps 758 mmHg 48%
    15:00 +29°C° 0 mm 4 mps 757 mmHg 48%
    16:00 +29°C° 0 mm 4 mps 757 mmHg 48%
    17:00 +27°C° 0.2 mm 3 mps 757 mmHg 58%
    18:00 +26°C° 0.2 mm 3 mps 758 mmHg 67%
    19:00 +24°C° 0.2 mm 2 mps 758 mmHg 76%
    20:00 +23°C° 0.5 mm 2 mps 759 mmHg 81%
    21:00 +23°C° 0.5 mm 2 mps 759 mmHg 86%
    22:00 +22°C° 0.5 mm 1 mps 760 mmHg 90%
    23:00 +21°C° 0.2 mm 1 mps 760 mmHg 90%
    Show more